Regional Weather Roundup
Issued by NWS

Home | Current Version | Previous Version | Graphics & Text | Print | Product List | Glossary On
Versions: 1 2 3 4 5 6 7 8 9 10 11 12 13 14 15 16 17 18 19 20 21 22 23 24 25 26 27 28 29 30 31 32 33 34 35 36 37 38 39 40 41 42 43 44 45 46 47 48 49 50
000
ASUS45 KSLC 011610
RWRUT

UTAH REGIONAL WEATHER ROUNDUP
NATIONAL WEATHER SERVICE SALT LAKE CITY UT
900 AM MST SUN MAR 01 2015

UTZ001>011-023>025-011700-

NORTHERN UTAH

CITY           SKY/WX    TMP DP  RH WIND       PRES   REMARKS
BRIGHAM CITY   SUNNY     32  17  53 N7        30.10R WCI  26
HILL AFB       MOSUNNY   35  19  53 E5        30.07R WCI  31
LOGAN          SUNNY     26  17  68 S5        30.13R WCI  20
OGDEN          SUNNY     33  22  63 NW7       30.08R WCI  27
PROVO AIRPORT  NOT AVBL
SALT LAKE CITY PTSUNNY   36  28  73 W5        30.08R WCI  32
VERNAL         LGT SNOW  29  24  82 NE12      30.12R WCI  19
WENDOVER       CLOUDY    37  16  41 S7        30.10R WCI  32
HEBER CITY     CLOUDY    28  25  86 CALM      30.08R
WEST JORDAN    SUNNY     34  28  80 CALM      30.09R

$$

UTZ012>022-026-027-011700-

SOUTHERN/CENTRAL UTAH

CITY           SKY/WX    TMP DP  RH WIND       PRES   REMARKS
BLANDING       CLOUDY    33  33 100 NE3       30.16R
BRYCE CANYON   LGT SNOW  22  21  96 CALM      30.04R VSB 1
CEDAR CITY     PTSUNNY   25  22  88 NE3       30.01R
DELTA          CLOUDY    34  33  96 CALM      30.06R
HANKSVILLE     CLOUDY    32  32 100 N3        30.11R
MILFORD        CLOUDY    31  29  92 E3        30.05R
MOAB/CYNLANDS  CLOUDY    34  32  92 CALM      30.06R
PRICE          CLOUDY    34  30  85 CALM      30.06R
ST GEORGE      CLOUDY    45  36  70 CALM      30.06R
KANAB          CLOUDY    34  34 100 N12       30.07S WCI  25

$$

REGIONAL REPORTS     COLORADO/ARIZONA

CITY           SKY/WX    TMP DP  RH WIND       PRES   REMARKS
CRAIG, CO      CLOUDY    21  17  84 CALM      30.14R FOG
GRAND JUNCTION CLOUDY    35  31  85 SE8       30.08R WCI  29
RIFLE          CLOUDY    35  28  75 CALM      30.09R
MONTROSE       CLOUDY    34  28  79 E5        30.10R WCI  30
CORTEZ         LGT SNOW  34  33  96 NE5       30.09R FOG     WCI  30
PAGE, AZ       LGT RAIN  39  35  86 N7        30.06R WCI  34
GRAND CANYON   SNOW      32  31  96 CALM      30.03S VSB 1/2
KINGMAN        CLOUDY    48  37  65 NE6       29.96S
FLAGSTAFF      SNOW      32  30  92 NE3       30.03S VSB 1/2

$$

REGIONAL REPORTS    NEVADA/IDAHO/WYOMING

CITY           SKY/WX    TMP DP  RH WIND       PRES   REMARKS
LAS VEGAS, NV  PTSUNNY   48  35  60 S7        29.95R
ELY            SNOW      28  26  92 NE9       30.03R VSB 1/2 WCI  19
ELKO           MOSUNNY   32  16  51 NE10      30.04R WCI  24
POCATELLO, ID  SUNNY     21   3  45 NE13      30.19R WCI   9
BURLEY         SUNNY     25   6  44 E15       30.18R WCI  13
EVANSTON, WY   SUNNY     18  14  84 E14       30.07R WCI   4
ROCK SPRINGS   SUNNY     13   6  74 E8        30.14R WCI   2

$$


USA.gov is the U.S. government's official web portal to all federal, state and local government web resources and services.